STARLINK-11483, 62223

Orbit data source: Space-Track

STARLINK-11483, 62223 is a payload satellite owned by SpaceX/Seattle (US) in LEO that was launched on Thu, 05 Dec 2024 UTC via an FALCON 9 launch vehicle from the Air Force Western Test Range (AFWTR). Payload-class satellites include a variety of spacecraft equipped with specific instruments for various scientific and technological missions. These include communications satellites like Starlink; space stations such as the ISS; scientific satellites like the Hubble; Earth observation satellites from companies like Planet Labs, Umbra, and HawkEye 360; GPS; miniature CubeSats for education and research; and military/defense satellites.

Loading next visibility...
Identifier
62223, 2024-231F
Orbit
LEO
Last TLE update
8 hours ago
Origin
Manufacturer
SpaceX/Seattle
Mission
Operational Commercial Communications
Bus & Motor
STARLINK V2M, Unknown motor
Mass
730 kg wet, ~700 kg dry
Launch date (UTC)
2024-12-05 (7 months ago)
Launch vehicle
FALCON 9
Launch site
Air Force Western Test Range (AFWTR)
Object type
Payload
Rocket body
Debris
Shape & HBR
Box + 2 Pan, 29 m
Radar Cross Section
36.964 m², Large (>1 m²)

Expand to show TLE details & history

TLE from 8 hours ago
0 STARLINK-11483
1 62223U 24231F   25182.00002315  .00037446  00000-0  31298-3 0  9996
2 62223  53.1566 261.7348 0001115  95.8651 293.0915 15.69676322 33907
Epoch: 2025-07-01T00:00Z
TLE epoch observation values (Epoch: 2025-07-01T00:00:02Z)
Latitude
22.84601°
Longitude
0.71933°
Altitude
360.27 km
Speed
7.697 km/s
True Right ascension
18h 40m 07s
True Declination
22° 42' 58"
Sunlit
Object was in full shadow at epoch
Visualization orbit readout
Latitude
-37.65607°
Longitude
-164.2238°
Altitude
372.451 km
Speed
7.686 km/s
Apparent Right ascension
07h 53m 23s
Apparent Declination
-38° 37' 16"
Sunlit
Object is in daylight
Visualization observer readout
Local Sidereal Time
20:07:38
Azimuth
65.987° ENE
Elevation
-86.953°
Doppler factor
1
Orbital elements
Apogee altitude
360.836 km
Perigee altitude
359.333 km
Semi-major axis
6,738.221 km
Eccentricity
0.00011
Inclination
53.1566°
RAAN
261.7348°
Arg. of periapsis
95.8651°
True anomaly
Unknown
Mean anomaly
293.0915°
Eccentric anomaly
Unknown
Mean motion
3.92397 °/min
Orbital period
91.74 mins
BSTAR
0.00031298
Loading maneuver chart data...
Loading SW <> Apogee altitude chart data...
Loading historical data...
Loading historical data...
Loading historical data...
Loading historical data...
Loading historical data...
Loading historical data...
Loading historical data...

STARLINK-11483 Visibility forecast

Observer location: undefined°, undefined°

Span
Click to sort rows by Start time (UTC) header in descending order
Start Az.
Max El. time (UTC)
Max El. Az.
Max El.
End time (UTC)
End Az.
4 mins2025-07-01 09:16:30.871Z277.02° WNW2025-07-01 09:18:30.871Z319.615° NNW20.067°2025-07-01 09:20:30.871Z14.305° NNE
4 mins2025-07-02 08:10:30.871Z250.68° W2025-07-02 08:12:30.871Z344.936° N38.089°2025-07-02 08:14:30.871Z38.63° NE
|